| time (UTC) | temp C | wind direction | speed KPH | gust KPH | rain 1hr cm | rain 24hr cm | rain mn cm | humidity % | barometer mb |
| 20260504050259 | 8 | 267 | 0.0 | 0.0 | 0.00 | 0.00 | 0.00 | 76 | 1233.4 |
| 20260504045756 | 8 | 267 | 0.0 | 0.0 | 0.00 | 0.00 | 0.00 | 75 | 1233.4 |
| 20260504045256 | 8 | 267 | 0.0 | 0.0 | 0.00 | 0.00 | 0.00 | 73 | 1233.4 |
| 20260504044754 | 8 | 267 | 0.0 | 0.0 | 0.00 | 0.00 | 0.00 | 72 | 1233.4 |
| 20260504044251 | 9 | 267 | 0.0 | 0.0 | 0.00 | 0.00 | 0.00 | 74 | 1233.4 |
| 20260504043748 | 9 | 267 | 0.0 | 0.0 | 0.00 | 0.00 | 0.00 | 74 | 1233.4 |
| 20260504043245 | 10 | 267 | 0.0 | 0.0 | 0.00 | 0.00 | 0.00 | 73 | 1233.4 |
| 20260504042743 | 9 | 266 | 0.0 | 0.0 | 0.00 | 0.00 | 0.00 | 71 | 1233.4 |
| 20260504042239 | 10 | 266 | 0.0 | 0.0 | 0.00 | 0.00 | 0.00 | 71 | 1233.4 |
| 20260504041736 | 10 | 267 | 0.0 | 0.0 | 0.00 | 0.00 | 0.00 | 69 | 1233.4 |
| 20260504041231 | 10 | 267 | 0.0 | 0.0 | 0.00 | 0.00 | 0.00 | 66 | 1233.4 |
| 20260504040728 | 10 | 267 | 0.0 | 0.0 | 0.00 | 0.00 | 0.00 | 68 | 1233.4 |
| 20260504040225 | 10 | 267 | 0.0 | 0.0 | 0.00 | 0.00 | 0.00 | 71 | 1233.4 |
| 20260504035721 | 10 | 267 | 0.0 | 0.0 | 0.00 | 0.00 | 0.00 | 70 | 1233.4 |
| 20260504035219 | 10 | 267 | 0.0 | 0.0 | 0.00 | 0.00 | 0.00 | 70 | 1233.4 |
| 20260504034716 | 10 | 267 | 0.0 | 0.0 | 0.00 | 0.00 | 0.00 | 69 | 1233.4 |
| 20260504034213 | 10 | 267 | 0.0 | 0.0 | 0.00 | 0.00 | 0.00 | 69 | 1233.4 |
| 20260504033711 | 10 | 267 | 0.0 | 0.0 | 0.00 | 0.00 | 0.00 | 69 | 1233.4 |
| 20260504033208 | 10 | 267 | 0.0 | 0.0 | 0.00 | 0.00 | 0.00 | 68 | 1233.4 |
| 20260504032705 | 11 | 267 | 0.0 | 0.0 | 0.00 | 0.00 | 0.00 | 67 | 1233.4 |
| 20260504032202 | 11 | 267 | 0.0 | 0.0 | 0.00 | 0.00 | 0.00 | 64 | 1233.4 |
| 20260504031659 | 11 | 267 | 0.0 | 0.0 | 0.00 | 0.00 | 0.00 | 63 | 1233.4 |
| 20260504031155 | 12 | 267 | 0.0 | 0.0 | 0.00 | 0.00 | 0.00 | 58 | 1233.4 |
| 20260504030652 | 12 | 267 | 0.0 | 0.0 | 0.00 | 0.00 | 0.00 | 58 | 1233.4 |
| 20260504030148 | 12 | 267 | 0.0 | 0.0 | 0.00 | 0.00 | 0.00 | 59 | 1233.4 |
| 20260504025645 | 12 | 267 | 0.0 | 0.0 | 0.00 | 0.00 | 0.00 | 57 | 1233.4 |
| 20260504025142 | 12 | 267 | 0.0 | 0.0 | 0.00 | 0.00 | 0.00 | 55 | 1233.4 |
| 20260504024640 | 13 | 267 | 0.0 | 0.0 | 0.00 | 0.00 | 0.00 | 55 | 1233.4 |
| 20260504024136 | 13 | 267 | 0.0 | 0.0 | 0.00 | 0.00 | 0.00 | 53 | 1233.4 |
| 20260504023633 | 13 | 267 | 0.0 | 0.0 | 0.00 | 0.00 | 0.00 | 54 | 1233.4 |
| 20260504023129 | 13 | 267 | 0.0 | 0.0 | 0.00 | 0.00 | 0.00 | 53 | 1233.4 |
| 20260504022625 | 13 | 273 | 0.0 | 0.0 | 0.00 | 0.00 | 0.00 | 52 | 1233.4 |
| 20260504022121 | 14 | 264 | 0.0 | 0.0 | 0.00 | 0.00 | 0.00 | 52 | 1233.4 |
| 20260504021620 | 14 | 258 | 0.0 | 3.2 | 0.00 | 0.00 | 0.00 | 50 | 1233.4 |
| 20260504021116 | 14 | 256 | 0.0 | 0.0 | 0.00 | 0.00 | 0.00 | 50 | 1233.4 |
| 20260504020613 | 14 | 256 | 0.0 | 0.0 | 0.00 | 0.00 | 0.00 | 49 | 1233.4 |
| 20260504020109 | 14 | 256 | 0.0 | 0.0 | 0.00 | 0.00 | 0.00 | 53 | 1233.4 |
| 20260504015605 | 15 | 255 | 0.0 | 0.0 | 0.00 | 0.00 | 0.00 | 51 | 1233.4 |
| 20260504015101 | 15 | 272 | 0.0 | 0.0 | 0.00 | 0.00 | 0.00 | 47 | 1233.4 |
| 20260504014558 | 16 | 272 | 0.0 | 0.0 | 0.00 | 0.00 | 0.00 | 46 | 1233.4 |
| 20260504014055 | 16 | 272 | 0.0 | 0.0 | 0.00 | 0.00 | 0.00 | 45 | 1233.4 |
| 20260504013552 | 16 | 272 | 0.0 | 0.0 | 0.00 | 0.00 | 0.00 | 44 | 1233.4 |
| 20260504013049 | 16 | 272 | 0.0 | 0.0 | 0.00 | 0.00 | 0.00 | 42 | 1233.4 |
| 20260504012547 | 17 | 272 | 0.0 | 0.0 | 0.00 | 0.00 | 0.00 | 41 | 1233.4 |
| 20260504012045 | 17 | 272 | 0.0 | 0.0 | 0.00 | 0.00 | 0.00 | 40 | 1233.4 |
| 20260504011541 | 18 | 272 | 0.0 | 3.2 | 0.00 | 0.00 | 0.00 | 39 | 1233.4 |
| 20260504011037 | 18 | 275 | 0.0 | 3.2 | 0.00 | 0.00 | 0.00 | 37 | 1233.4 |
| 20260504010533 | 18 | 273 | 1.6 | 3.2 | 0.00 | 0.00 | 0.00 | 37 | 1233.4 |
| 20260504010029 | 18 | 274 | 0.0 | 0.0 | 0.00 | 0.00 | 0.00 | 37 | 1233.4 |
| 20260504005526 | 19 | 274 | 1.6 | 3.2 | 0.00 | 0.00 | 0.00 | 37 | 1233.4 |
| 20260504005024 | 20 | 274 | 1.6 | 3.2 | 0.00 | 0.00 | 0.00 | 36 | 1233.4 |
| 20260504004521 | 20 | 265 | 1.6 | 3.2 | 0.00 | 0.00 | 0.00 | 35 | 1233.4 |
| 20260504004018 | 20 | 266 | 1.6 | 3.2 | 0.00 | 0.00 | 0.00 | 33 | 1233.4 |
| 20260504003514 | 21 | 269 | 4.8 | 8.0 | 0.00 | 0.00 | 0.00 | 33 | 1233.4 |
| 20260504003011 | 21 | 277 | 3.2 | 4.8 | 0.00 | 0.00 | 0.00 | 32 | 1233.4 |
| 20260504002508 | 21 | 273 | 4.8 | 8.0 | 0.00 | 0.00 | 0.00 | 31 | 1233.4 |
| 20260504002005 | 21 | 282 | 8.0 | 9.7 | 0.00 | 0.00 | 0.00 | 30 | 1233.4 |
| 20260504001503 | 22 | 247 | 6.4 | 8.0 | 0.00 | 0.00 | 0.00 | 30 | 1233.4 |
| 20260504000959 | 22 | 285 | 11.3 | 16.1 | 0.00 | 0.00 | 0.00 | 30 | 1233.4 |
| 20260504000456 | 22 | 282 | 6.4 | 9.7 | 0.00 | 0.00 | 0.00 | 29 | 1233.4 |
| 20260503235953 | 22 | 291 | 4.8 | 8.0 | 0.00 | 0.00 | 0.00 | 28 | 1233.4 |
| 20260503235451 | 22 | 253 | 4.8 | 4.8 | 0.00 | 0.00 | 0.00 | 30 | 1233.4 |
| 20260503234948 | 22 | 291 | 4.8 | 8.0 | 0.00 | 0.00 | 0.00 | 29 | 1233.4 |
| 20260503234446 | 22 | 283 | 11.3 | 12.9 | 0.00 | 0.00 | 0.00 | 27 | 1233.4 |
| 20260503233944 | 23 | 269 | 6.4 | 8.0 | 0.00 | 0.00 | 0.00 | 27 | 1233.4 |
| 20260503233440 | 23 | 267 | 4.8 | 8.0 | 0.00 | 0.00 | 0.00 | 29 | 1233.4 |
| 20260503232936 | 23 | 262 | 6.4 | 8.0 | 0.00 | 0.00 | 0.00 | 28 | 1233.4 |
| 20260503232433 | 23 | 269 | 8.0 | 9.7 | 0.00 | 0.00 | 0.00 | 27 | 1233.4 |
| 20260503231932 | 23 | 285 | 6.4 | 8.0 | 0.00 | 0.00 | 0.00 | 28 | 1233.4 |
| 20260503231429 | 23 | 277 | 11.3 | 16.1 | 0.00 | 0.00 | 0.00 | 26 | 1233.4 |
| 20260503230925 | 23 | 266 | 6.4 | 9.7 | 0.00 | 0.00 | 0.00 | 27 | 1233.4 |
| 20260503230421 | 24 | 284 | 6.4 | 8.0 | 0.00 | 0.00 | 0.00 | 27 | 1233.4 |
| 20260503225919 | 24 | 268 | 9.7 | 12.9 | 0.00 | 0.00 | 0.00 | 27 | 1233.4 |
| 20260503225415 | 24 | 278 | 8.0 | 16.1 | 0.00 | 0.00 | 0.00 | 28 | 1233.4 |
| 20260503224911 | 23 | 268 | 11.3 | 20.9 | 0.00 | 0.00 | 0.00 | 27 | 1233.4 |
| 20260503224409 | 24 | 258 | 4.8 | 8.0 | 0.00 | 0.00 | 0.00 | 27 | 1233.4 |
| 20260503223906 | 23 | 338 | 6.4 | 8.0 | 0.00 | 0.00 | 0.00 | 27 | 1233.4 |
| 20260503223404 | 24 | 289 | 4.8 | 4.8 | 0.00 | 0.00 | 0.00 | 27 | 1233.4 |
| 20260503222859 | 24 | 296 | 8.0 | 9.7 | 0.00 | 0.00 | 0.00 | 27 | 1233.4 |
| 20260503222358 | 24 | 256 | 9.7 | 12.9 | 0.00 | 0.00 | 0.00 | 27 | 1233.4 |
| 20260503221856 | 23 | 268 | 8.0 | 9.7 | 0.00 | 0.00 | 0.00 | 28 | 1233.4 |
| 20260503221354 | 23 | 278 | 16.1 | 20.9 | 0.00 | 0.00 | 0.00 | 26 | 1233.4 |
| 20260503220850 | 24 | 279 | 12.9 | 16.1 | 0.00 | 0.00 | 0.00 | 27 | 1233.4 |
| 20260503220347 | 24 | 298 | 8.0 | 9.7 | 0.00 | 0.00 | 0.00 | 27 | 1233.4 |
| 20260503215844 | 23 | 259 | 9.7 | 12.9 | 0.00 | 0.00 | 0.00 | 27 | 1233.4 |
| 20260503215341 | 24 | 279 | 9.7 | 12.9 | 0.00 | 0.00 | 0.00 | 29 | 1233.4 |
| 20260503214838 | 24 | 303 | 11.3 | 22.5 | 0.00 | 0.00 | 0.00 | 27 | 1233.4 |
| 20260503214336 | 24 | 245 | 6.4 | 12.9 | 0.00 | 0.00 | 0.00 | 29 | 1233.4 |
| 20260503213833 | 24 | 272 | 8.0 | 9.7 | 0.00 | 0.00 | 0.00 | 29 | 1233.4 |
| 20260503213331 | 23 | 273 | 12.9 | 17.7 | 0.00 | 0.00 | 0.00 | 28 | 1233.4 |
| 20260503212827 | 24 | 221 | 14.5 | 22.5 | 0.00 | 0.00 | 0.00 | 27 | 1233.4 |
| 20260503212325 | 24 | 261 | 3.2 | 4.8 | 0.00 | 0.00 | 0.00 | 30 | 1233.4 |
| 20260503211822 | 24 | 261 | 11.3 | 16.1 | 0.00 | 0.00 | 0.00 | 30 | 1233.4 |
| 20260503211319 | 24 | 297 | 17.7 | 29.0 | 0.00 | 0.00 | 0.00 | 30 | 1233.4 |
| 20260503210819 | 24 | 253 | 11.3 | 16.1 | 0.00 | 0.00 | 0.00 | 30 | 1233.4 |
| 20260503210317 | 25 | 284 | 6.4 | 8.0 | 0.00 | 0.00 | 0.00 | 30 | 1233.4 |
| 20260503205811 | 25 | 227 | 20.9 | 29.0 | 0.00 | 0.00 | 0.00 | 28 | 1233.4 |
| 20260503205308 | 25 | 312 | 20.9 | 29.0 | 0.00 | 0.00 | 0.00 | 29 | 1233.4 |
| 20260503204805 | 25 | 335 | 12.9 | 16.1 | 0.00 | 0.00 | 0.00 | 30 | 1233.4 |
| 20260503204303 | 24 | 283 | 9.7 | 12.9 | 0.00 | 0.00 | 0.00 | 29 | 1233.4 |
| 20260503203800 | 24 | 303 | 22.5 | 41.8 | 0.00 | 0.00 | 0.00 | 29 | 1233.4 |
| 20260503203257 | 24 | 258 | 12.9 | 17.7 | 0.00 | 0.00 | 0.00 | 30 | 1233.4 |
| 20260503202754 | 25 | 288 | 19.3 | 29.0 | 0.00 | 0.00 | 0.00 | 31 | 1233.4 |
| 20260503202252 | 25 | 269 | 14.5 | 20.9 | 0.00 | 0.00 | 0.00 | 28 | 1233.4 |
| 20260503201749 | 24 | 264 | 9.7 | 12.9 | 0.00 | 0.00 | 0.00 | 29 | 1233.4 |
| 20260503201247 | 24 | 294 | 12.9 | 17.7 | 0.00 | 0.00 | 0.00 | 30 | 1233.4 |
| 20260503200743 | 24 | 297 | 4.8 | 9.7 | 0.00 | 0.00 | 0.00 | 32 | 1233.4 |
| 20260503200239 | 24 | 280 | 9.7 | 16.1 | 0.00 | 0.00 | 0.00 | 29 | 1233.4 |
| 20260503195736 | 24 | 265 | 19.3 | 22.5 | 0.00 | 0.00 | 0.00 | 29 | 1233.4 |
| 20260503195233 | 25 | 266 | 8.0 | 9.7 | 0.00 | 0.00 | 0.00 | 29 | 1233.4 |
| 20260503194731 | 25 | 274 | 4.8 | 9.7 | 0.00 | 0.00 | 0.00 | 31 | 1233.4 |
| 20260503194226 | 24 | 261 | 11.3 | 20.9 | 0.00 | 0.00 | 0.00 | 30 | 1233.4 |
| 20260503193723 | 24 | 224 | 17.7 | 22.5 | 0.00 | 0.00 | 0.00 | 30 | 1233.4 |
| 20260503193219 | 24 | 280 | 29.0 | 38.6 | 0.00 | 0.00 | 0.00 | 31 | 1233.4 |
| 20260503192715 | 24 | 276 | 9.7 | 12.9 | 0.00 | 0.00 | 0.00 | 32 | 1233.4 |
| 20260503192210 | 24 | 272 | 11.3 | 16.1 | 0.00 | 0.00 | 0.00 | 33 | 1233.4 |
| 20260503191707 | 24 | 300 | 9.7 | 12.9 | 0.00 | 0.00 | 0.00 | 33 | 1233.4 |
| 20260503191204 | 23 | 282 | 12.9 | 16.1 | 0.00 | 0.00 | 0.00 | 33 | 1233.4 |
| 20260503190701 | 23 | 277 | 12.9 | 16.1 | 0.00 | 0.00 | 0.00 | 35 | 1233.4 |
| 20260503190158 | 23 | 298 | 12.9 | 17.7 | 0.00 | 0.00 | 0.00 | 34 | 1233.4 |
| 20260503185655 | 23 | 241 | 14.5 | 20.9 | 0.00 | 0.00 | 0.00 | 35 | 1233.4 |
| 20260503185150 | 23 | 277 | 16.1 | 22.5 | 0.00 | 0.00 | 0.00 | 36 | 1233.4 |
| 20260503184645 | 23 | 355 | 22.5 | 29.0 | 0.00 | 0.00 | 0.00 | 37 | 1233.4 |
| 20260503184142 | 23 | 272 | 8.0 | 9.7 | 0.00 | 0.00 | 0.00 | 38 | 1233.4 |
| 20260503183638 | 22 | 240 | 12.9 | 20.9 | 0.00 | 0.00 | 0.00 | 36 | 1233.4 |
| 20260503183136 | 22 | 240 | 12.9 | 16.1 | 0.00 | 0.00 | 0.00 | 38 | 1233.4 |
| 20260503182634 | 23 | 286 | 14.5 | 20.9 | 0.00 | 0.00 | 0.00 | 36 | 1233.4 |
| 20260503182132 | 23 | 269 | 9.7 | 12.9 | 0.00 | 0.00 | 0.00 | 38 | 1233.4 |
| 20260503181628 | 22 | 278 | 9.7 | 12.9 | 0.00 | 0.00 | 0.00 | 38 | 1233.4 |
| 20260503181125 | 22 | 268 | 11.3 | 12.9 | 0.00 | 0.00 | 0.00 | 39 | 1233.4 |
| 20260503180622 | 21 | 278 | 17.7 | 22.5 | 0.00 | 0.00 | 0.00 | 40 | 1233.4 |
| 20260503180120 | 22 | 303 | 19.3 | 22.5 | 0.00 | 0.00 | 0.00 | 40 | 1233.4 |
| 20260503175617 | 21 | 300 | 9.7 | 12.9 | 0.00 | 0.00 | 0.00 | 39 | 1233.4 |
| 20260503175114 | 21 | 285 | 14.5 | 17.7 | 0.00 | 0.00 | 0.00 | 39 | 1233.4 |
| 20260503174610 | 21 | 280 | 17.7 | 25.7 | 0.00 | 0.00 | 0.00 | 40 | 1233.4 |
| 20260503174108 | 21 | 267 | 4.8 | 8.0 | 0.00 | 0.00 | 0.00 | 43 | 1233.4 |
| 20260503173602 | 21 | 264 | 12.9 | 17.7 | 0.00 | 0.00 | 0.00 | 41 | 1233.4 |
| 20260503173059 | 21 | 240 | 17.7 | 20.9 | 0.00 | 0.00 | 0.00 | 40 | 1233.4 |
| 20260503172556 | 20 | 265 | 17.7 | 20.9 | 0.00 | 0.00 | 0.00 | 41 | 1233.4 |
| 20260503172054 | 21 | 260 | 6.4 | 9.7 | 0.00 | 0.00 | 0.00 | 42 | 1233.4 |
| 20260503171550 | 20 | 286 | 9.7 | 12.9 | 0.00 | 0.00 | 0.00 | 42 | 1233.4 |
| 20260503171047 | 20 | 327 | 20.9 | 30.6 | 0.00 | 0.00 | 0.00 | 40 | 1233.4 |
| 20260503170543 | 20 | 222 | 8.0 | 9.7 | 0.00 | 0.00 | 0.00 | 43 | 1233.4 |
| 20260503150936 | 15 | 208 | 14.5 | 20.9 | 0.00 | 0.00 | 0.00 | 47 | 1233.4 |
| 20260503150433 | 15 | 228 | 12.9 | 17.7 | 0.00 | 0.00 | 0.00 | 47 | 1233.4 |
| 20260503131326 | 12 | 226 | 3.2 | 8.0 | 0.00 | 0.00 | 0.00 | 52 | 1233.4 |
| 20260503130823 | 12 | 169 | 11.3 | 16.1 | 0.00 | 0.00 | 0.00 | 53 | 1233.4 |
| 20260503130321 | 12 | 239 | 3.2 | 4.8 | 0.00 | 0.00 | 0.00 | 55 | 1233.4 |
| 20260503110714 | 11 | 90 | 3.2 | 4.8 | 0.00 | 0.00 | 0.00 | 55 | 1233.4 |
| 20260503110211 | 11 | 179 | 0.0 | 0.0 | 0.00 | 0.00 | 0.00 | 53 | 1233.4 |
| 20260503100138 | 12 | 203 | 8.0 | 9.7 | 0.00 | 0.00 | 0.00 | 50 | 1233.4 |
| 20260503081527 | 10 | 139 | 3.2 | 4.8 | 0.00 | 0.00 | 0.00 | 58 | 1233.4 |
| 20260503081024 | 10 | 178 | 0.0 | 3.2 | 0.00 | 0.00 | 0.00 | 56 | 1233.4 |
| 20260503080520 | 10 | 126 | 6.4 | 8.0 | 0.00 | 0.00 | 0.00 | 55 | 1233.4 |
| 20260503072454 | 10 | 250 | 0.0 | 0.0 | 0.00 | 0.00 | 0.00 | 55 | 1233.4 |
| 20260503071951 | 11 | 289 | 1.6 | 3.2 | 0.00 | 0.00 | 0.00 | 54 | 1233.4 |
| 20260503071448 | 11 | 109 | 1.6 | 3.2 | 0.00 | 0.00 | 0.00 | 53 | 1233.4 |
| 20260503070944 | 11 | 196 | 3.2 | 4.8 | 0.00 | 0.00 | 0.00 | 52 | 1233.4 |
| 20260503070441 | 10 | 233 | 0.0 | 0.0 | 0.00 | 0.00 | 0.00 | 53 | 1233.4 |